20/5/24
Time         Wind Dir  Wind Gust   Humidity       Temp   Tot Rain Wind Chill Heat Index  Dew Point   Barom SL Temp Out H Temp Out L  DailyRain   HourRain   24HrRain   RainRate   Wind Run   Deg Heat   Deg Cool  MonthRain
                          km/hr          %         C         mm         C         C         C         mb         C         C         mm         mm         mm      mm/hr         km         C         C         mm
0:00              281        0.0         64       16.9      342.4       16.9       18.2       10.1     1010.8       16.9       16.9        0.0        0.0        0.0       0.00        0.0       0.91       0.30        3.6
0:01              290        0.0         64       16.9      342.4       16.9       18.1       10.0     1010.8       16.9       16.9        0.0        0.0        0.0       0.00        0.0       0.01       0.00        3.6
0:04              285        0.0         64       16.9      342.4       16.9       18.1       10.0     1010.8       16.9       16.9        0.0        0.0        0.0       0.00        0.0       0.01       0.00        3.6
0:06              314        0.0         64       16.8      342.4       16.8       18.1       10.0     1010.8       16.9       16.8        0.0        0.0        0.0       0.00        0.0       0.01       0.00        3.6
0:07              271        0.0         64       16.8      342.4       16.8       18.1       10.0     1010.8       16.9       16.8        0.0        0.0        0.0       0.00        0.0       0.01       0.00        3.6
0:10              275        0.0         64       16.8      342.4       16.8       18.0        9.9     1010.8       16.9       16.8        0.0        0.0        0.0       0.00        0.0       0.01       0.00        3.6
0:12              273        0.0         64       16.8      342.4       16.8       18.0        9.9     1010.8       16.9       16.8        0.0        0.0        0.0       0.00        0.0       0.01       0.00        3.6
0:13              273        0.0         64       16.7      342.4       16.7       18.0        9.9     1010.9       16.9       16.7        0.0        0.0        0.0       0.00        0.0       0.01       0.00        3.6
0:16              329        0.0         64       16.7      342.4       16.7       18.0        9.9     1010.9       16.9       16.7        0.0        0.0        0.0       0.00        0.0       0.02       0.00        3.6
0:18              285        0.0         64       16.7      342.4       16.7       18.0        9.9     1010.8       16.9       16.7        0.0        0.0        0.0       0.00        0.0       0.02       0.00        3.6
0:20              311        0.0         64       16.7      342.4       16.7       18.0        9.9     1010.8       16.9       16.7        0.0        0.0        0.0       0.00        0.0       0.02       0.00        3.6
0:21              289        0.0         64       16.7      342.4       16.7       18.0        9.9     1010.8       16.9       16.7        0.0        0.0        0.0       0.00        0.0       0.02       0.00        3.6
0:24              311        0.0         64       16.7      342.4       16.7       18.0        9.9     1010.8       16.9       16.7        0.0        0.0        0.0       0.00        0.0       0.02       0.00        3.6
0:25              277        0.0         64       16.7      342.4       16.7       18.0        9.9     1010.8       16.9       16.7        0.0        0.0        0.0       0.00        0.0       0.02       0.00        3.6
0:28              290        0.0         63       16.7      342.4       16.7       17.9        9.6     1010.8       16.9       16.7        0.0        0.0        0.0       0.00        0.0       0.02       0.00        3.6
0:30              289        0.0         64       16.7      342.4       16.7       17.9        9.8     1010.8       16.9       16.7        0.0        0.0        0.0       0.00        0.0       0.02       0.00        3.6
0:32              300        0.0         63       16.7      342.4       16.7       17.9        9.6     1010.8       16.9       16.7        0.0        0.0        0.0       0.00        0.0       0.04       0.00        3.6
0:34              298        0.0         63       16.7      342.4       16.7       17.9        9.6     1010.9       16.9       16.7        0.0        0.0        0.0       0.00        0.0       0.04       0.00        3.6
0:36              312        0.0         63       16.7      342.4       16.7       17.9        9.6     1010.9       16.9       16.7        0.0        0.0        0.0       0.00        0.0       0.04       0.00        3.6
0:38              302        0.0         63       16.7      342.4       16.7       17.9        9.6     1010.9       16.9       16.7        0.0        0.0        0.0       0.00        0.0       0.04       0.00        3.6
0:40              279        0.0         63       16.7      342.4       16.7       17.9        9.6     1010.9       16.9       16.7        0.0        0.0        0.0       0.00        0.0       0.04       0.00        3.6
0:42              306        0.0         63       16.7      342.4       16.7       17.9        9.6     1010.8       16.9       16.7        0.0        0.0        0.0       0.00        0.0       0.04       0.00        3.6
0:43              290        0.0         63       16.7      342.4       16.7       17.9        9.6     1010.8       16.9       16.7        0.0        0.0        0.0       0.00        0.0       0.04       0.00        3.6
0:45              307        0.0         63       16.7      342.4       16.7       17.9        9.6     1010.8       16.9       16.6        0.0        0.0        0.0       0.00        0.0       0.05       0.00        3.6
0:48              314        0.0         63       16.6      342.4       16.6       17.8        9.5     1010.8       16.9       16.6        0.0        0.0        0.0       0.00        0.0       0.05       0.00        3.6
0:50              304        0.0         63       16.6      342.4       16.6       17.8        9.5     1010.8       16.9       16.6        0.0        0.0        0.0       0.00        0.0       0.05       0.00        3.6
0:52              304        0.0         63       16.6      342.4       16.6       17.8        9.5     1010.8       16.9       16.6        0.0        0.0        0.0       0.00        0.0       0.05       0.00        3.6
0:54              324        0.0         63       16.6      342.4       16.6       17.8        9.5     1010.8       16.9       16.6        0.0        0.0        0.0       0.00        0.0       0.05       0.00        3.6
0:55              339        0.0         63       16.6      342.4       16.6       17.8        9.5     1010.7       16.9       16.6        0.0        0.0        0.0       0.00        0.0       0.05       0.00        3.6
0:57              337        0.0         63       16.6      342.4       16.6       17.8        9.5     1010.9       16.9       16.6        0.0        0.0        0.0       0.00        0.0       0.05       0.00        3.6
1:00              338        0.0         63       16.6      342.4       16.6       17.8        9.5     1010.9       16.9       16.6        0.0        0.0        0.0       0.00        0.0       0.05       0.00        3.6
1:02              311        0.0         62       16.6      342.4       16.6       17.7        9.3     1010.7       16.9       16.6        0.0        0.0        0.0       0.00        0.0       0.07       0.00        3.6
1:04              320        0.0         62       16.6      342.4       16.6       17.7        9.3     1010.7       16.9       16.6        0.0        0.0        0.0       0.00        0.0       0.07       0.00        3.6
1:05              321        0.0         62       16.6      342.4       16.6       17.7        9.3     1010.6       16.9       16.6        0.0        0.0        0.0       0.00        0.0       0.07       0.00        3.6
1:07              339        0.0         62       16.6      342.4       16.6       17.7        9.3     1010.6       16.9       16.6        0.0        0.0        0.0       0.00        0.0       0.07       0.00        3.6
1:09              326        0.0         62       16.6      342.4       16.6       17.7        9.3     1010.6       16.9       16.5        0.0        0.0        0.0       0.00        0.0       0.07       0.00        3.6
1:12              304        0.0         62       16.5      342.4       16.5       17.6        9.2     1010.6       16.9       16.5        0.0        0.0        0.0       0.00        0.0       0.07       0.00        3.6
1:14              315        0.0         62       16.5      342.4       16.5       17.6        9.2     1010.7       16.9       16.5        0.0        0.0        0.0       0.00        0.0       0.07       0.00        3.6
1:15              348        0.0         62       16.5      342.4       16.5       17.6        9.2     1010.8       16.9       16.5        0.0        0.0        0.0       0.00        0.0       0.08       0.00        3.6
1:18              313        0.0         62       16.5      342.4       16.5       17.6        9.2     1010.8       16.9       16.5        0.0        0.0        0.0       0.00        0.0       0.08       0.00        3.6
1:20              336        0.0         62       16.5      342.4       16.5       17.6        9.2     1010.8       16.9       16.5        0.0        0.0        0.0       0.00        0.0       0.08       0.00        3.6
1:21              319        0.0         62       16.5      342.4       16.5       17.6        9.2     1010.8       16.9       16.4        0.0        0.0        0.0       0.00        0.0       0.08       0.00        3.6
1:24              321        0.0         62       16.4      342.4       16.4       17.6        9.1     1010.8       16.9       16.4        0.0        0.0        0.0       0.00        0.0       0.08       0.00        3.6
1:26              313        0.0         62       16.4      342.4       16.4       17.6        9.1     1010.8       16.9       16.4        0.0        0.0        0.0       0.00        0.0       0.08       0.00        3.6
1:28              313        0.0         62       16.4      342.4       16.4       17.6        9.1     1010.7       16.9       16.4        0.0        0.0        0.0       0.00        0.0       0.08       0.00        3.6
1:30              323        0.0         62       16.4      342.4       16.4       17.5        9.1     1010.7       16.9       16.4        0.0        0.0        0.0       0.00        0.0       0.08       0.00        3.6
1:31              317        0.0         62       16.4      342.4       16.4       17.5        9.1     1010.8       16.9       16.4        0.0        0.0        0.0       0.00        0.0       0.10       0.00        3.6
1:33              318        0.0         62       16.4      342.4       16.4       17.5        9.1     1010.6       16.9       16.4        0.0        0.0        0.0       0.00        0.0       0.10       0.00        3.6
1:36              309        0.0         62       16.3      342.4       16.3       17.5        9.0     1010.7       16.9       16.3        0.0        0.0        0.0       0.00        0.0       0.10       0.00        3.6
1:38              319        0.0         62       16.3      342.4       16.3       17.5        9.0     1010.8       16.9       16.3        0.0        0.0        0.0       0.00        0.0       0.10       0.00        3.6
1:40              331        0.0         62       16.3      342.4       16.3       17.5        9.0     1010.6       16.9       16.3        0.0        0.0        0.0       0.00        0.0       0.10       0.00        3.6
1:42              321        0.0         62       16.3      342.4       16.3       17.5        9.0     1010.6       16.9       16.3        0.0        0.0        0.0       0.00        0.0       0.10       0.00        3.6
1:44              307        0.0         62       16.3      342.4       16.3       17.4        9.0     1010.7       16.9       16.3        0.0        0.0        0.0       0.00        0.0       0.10       0.00        3.6
1:46              307        0.0         63       16.3      342.4       16.3       17.5        9.2     1010.7       16.9       16.3        0.0        0.0        0.0       0.00        0.0       0.12       0.00        3.6
1:48              314        0.0         63       16.3      342.4       16.3       17.5        9.2     1010.6       16.9       16.2        0.0        0.0        0.0       0.00        0.0       0.12       0.00        3.6
1:50              331        0.0         63       16.2      342.4       16.2       17.4        9.2     1010.6       16.9       16.2        0.0        0.0        0.0       0.00        0.0       0.12       0.00        3.6
1:52              331        0.0         63       16.2      342.4       16.2       17.4        9.2     1010.7       16.9       16.2        0.0        0.0        0.0       0.00        0.0       0.12       0.00        3.6
1:54              306        0.0         63       16.2      342.4       16.2       17.4        9.2     1010.7       16.9       16.2        0.0        0.0        0.0       0.00        0.0       0.12       0.00        3.6
1:56              309        0.0         63       16.2      342.4       16.2       17.4        9.1     1010.6       16.9       16.2        0.0        0.0        0.0       0.00        0.0       0.12       0.00        3.6
1:58              311        0.0         63       16.2      342.4       16.2       17.4        9.1     1010.8       16.9       16.1        0.0        0.0        0.0       0.00        0.0       0.12       0.00        3.6
2:00              335        0.0         63       16.1      342.4       16.1       17.3        9.1     1010.8       16.9       16.1        0.0        0.0        0.0       0.00        0.0       0.12       0.00        3.6
2:02              335        0.0         63       16.1      342.4       16.1       17.3        9.1     1010.7       16.9       16.1        0.0        0.0        0.0       0.00        0.0       0.14       0.00        3.6
2:04              328        0.0         63       16.1      342.4       16.1       17.3        9.1     1010.7       16.9       16.1        0.0        0.0        0.0       0.00        0.0       0.14       0.00        3.6
2:06              327        0.0         63       16.1      342.4       16.1       17.3        9.1     1010.7       16.9       16.1        0.0        0.0        0.0       0.00        0.0       0.14       0.00        3.6
2:08              327        0.0         63       16.1      342.4       16.1       17.2        9.0     1010.7       16.9       16.1        0.0        0.0        0.0       0.00        0.0       0.14       0.00        3.6
2:10              327        0.0         63       16.1      342.4       16.1       17.2        9.0     1010.7       16.9       16.1        0.0        0.0        0.0       0.00        0.0       0.14       0.00        3.6
2:12              327        0.0         63       16.1      342.4       16.1       17.2        9.0     1010.7       16.9       16.1        0.0        0.0        0.0       0.00        0.0       0.14       0.00        3.6
2:14              327        0.0         63       16.1      342.4       16.1       17.2        9.0     1010.8       16.9       16.1        0.0        0.0        0.0       0.00        0.0       0.14       0.00        3.6
2:16              327        0.0         63       16.0      342.4       16.0       17.2        9.0     1010.8       16.9       16.0        0.0        0.0        0.0       0.00        0.0       0.16       0.00        3.6
2:17              327        0.0         63       16.0      342.4       16.0       17.2        9.0     1010.8       16.9       16.0        0.0        0.0        0.0       0.00        0.0       0.16       0.00        3.6
2:20              327        0.0         63       16.0      342.4       16.0       17.2        9.0     1010.8       16.9       16.0        0.0        0.0        0.0       0.00        0.0       0.16       0.00        3.6
2:21              326        0.0         64       16.0      342.4       16.0       17.3        9.2     1010.8       16.9       15.9        0.0        0.0        0.0       0.00        0.0       0.16       0.00        3.6
2:23              326        0.0         64       15.9      342.4       15.9       17.2        9.1     1010.7       16.9       15.9        0.0        0.0        0.0       0.00        0.0       0.16       0.00        3.6
2:26              326        0.0         64       15.9      342.4       15.9       17.1        9.1     1010.7       16.9       15.9        0.0        0.0        0.0       0.00        0.0       0.16       0.00        3.6
2:27              325        0.0         64       15.9      342.4       15.9       17.1        9.1     1010.8       16.9       15.9        0.0        0.0        0.0       0.00        0.0       0.16       0.00        3.6
2:30              325        0.0         64       15.9      342.4       15.9       17.1        9.1     1010.7       16.9       15.9        0.0        0.0        0.0       0.00        0.0       0.16       0.00        3.6
2:32              325        0.0         64       15.9      342.4       15.9       17.1        9.1     1010.8       16.9       15.9        0.0        0.0        0.0       0.00        0.0       0.18       0.00        3.6
2:34              325        0.0         64       15.8      342.4       15.8       17.1        9.0     1010.7       16.9       15.8        0.0        0.0        0.0       0.00        0.0       0.18       0.00        3.6
2:35              325        0.0         64       15.8      342.4       15.8       17.1        9.0     1010.8       16.9       15.8        0.0        0.0        0.0       0.00        0.0       0.18       0.00        3.6
2:38              325        0.0         65       15.8      342.4       15.8       17.1        9.3     1010.7       16.9       15.8        0.0        0.0        0.0       0.00        0.0       0.18       0.00        3.6
2:40              325        0.0         64       15.8      342.4       15.8       17.1        9.0     1010.7       16.9       15.8        0.0        0.0        0.0       0.00        0.0       0.18       0.00        3.6
2:42              325        0.0         64       15.8      342.4       15.8       17.0        9.0     1010.7       16.9       15.8        0.0        0.0        0.0       0.00        0.0       0.18       0.00        3.6
2:44              325        0.0         65       15.8      342.4       15.8       17.1        9.2     1010.7       16.9       15.8        0.0        0.0        0.0       0.00        0.0       0.18       0.00        3.6
2:46              325        0.0         65       15.8      342.4       15.8       17.1        9.2     1010.7       16.9       15.8        0.0        0.0        0.0       0.00        0.0       0.20       0.00        3.6
2:48              323        0.0         64       15.7      342.4       15.7       17.0        8.9     1010.7       16.9       15.7        0.0        0.0        0.0       0.00        0.0       0.20       0.00        3.6
2:49              321        0.0         64       15.7      342.4       15.7       17.0        8.9     1010.7       16.9       15.7        0.0        0.0        0.0       0.00        0.0       0.20       0.00        3.6
2:52              320        0.0         65       15.7      342.4       15.7       17.0        9.2     1010.7       16.9       15.7        0.0        0.0        0.0       0.00        0.0       0.20       0.00        3.6
2:54              307        0.0         65       15.7      342.4       15.7       17.0        9.1     1010.7       16.9       15.7        0.0        0.0        0.0       0.00        0.0       0.20       0.00        3.6
2:56              306        0.0         65       15.6      342.4       15.6       16.9        9.1     1010.7       16.9       15.6        0.0        0.0        0.0       0.00        0.0       0.20       0.00        3.6
2:58              304        0.0         65       15.6      342.4       15.6       16.9        9.1     1010.7       16.9       15.6        0.0        0.0        0.0       0.00        0.0       0.20       0.00        3.6
3:00              281        0.0         65       15.5      342.4       15.5       16.8        9.0     1010.7       16.9       15.5        0.0        0.0        0.0       0.00        0.0       0.20       0.00        3.6
3:02              268        0.0         66       15.4      342.4       15.4       16.8        9.1     1010.7       16.9       15.4        0.0        0.0        0.0       0.00        0.0       0.23       0.00        3.6
3:04              267        0.0         66       15.4      342.4       15.4       16.8        9.1     1010.8       16.9       15.4        0.0        0.0        0.0       0.00        0.0       0.23       0.00        3.6
3:06              266        0.0         66       15.3      342.4       15.3       16.7        9.0     1010.8       16.9       15.3        0.0        0.0        0.0       0.00        0.0       0.23       0.00        3.6
3:08              266        0.0         66       15.3      342.4       15.3       16.7        9.0     1010.7       16.9       15.3        0.0        0.0        0.0       0.00        0.0       0.23       0.00        3.6
3:09              265        0.0         66       15.2      342.4       15.2       16.6        8.9     1010.8       16.9       15.2        0.0        0.0        0.0       0.00        0.0       0.23       0.00        3.6
3:12              263        0.0         67       15.2      342.4       15.2       16.6        9.1     1010.8       16.9       15.2        0.0        0.0        0.0       0.00        0.0       0.23       0.00        3.6
3:14              261        0.0         67       15.1      342.4       15.1       16.6        9.0     1010.8       16.9       15.1        0.0        0.0        0.0       0.00        0.0       0.23       0.00        3.6
3:16              261        0.0         67       15.1      342.4       15.1       16.5        9.0     1010.8       16.9       15.1        0.0        0.0        0.0       0.00        0.0       0.26       0.00        3.6
3:18              259        0.0         67       15.0      342.4       15.0       16.4        8.9     1010.8       16.9       15.0        0.0        0.0        0.0       0.00        0.0       0.26       0.00        3.6
3:19              256        0.0         68       14.9      342.4       14.9       16.5        9.1     1010.9       16.9       14.9        0.0        0.0        0.0       0.00        0.0       0.26       0.00        3.6
3:22              257        0.0         68       14.9      342.4       14.9       16.4        9.0     1010.9       16.9       14.9        0.0        0.0        0.0       0.00        0.0       0.26       0.00        3.6
3:24              257        0.0         68       14.8      342.4       14.8       16.3        9.0     1011.0       16.9       14.8        0.0        0.0        0.0       0.00        0.0       0.26       0.00        3.6
3:26              257        0.0         68       14.8      342.4       14.8       16.3        9.0     1010.9       16.9       14.8        0.0        0.0        0.0       0.00        0.0       0.26       0.00        3.6
3:28              257        0.0         68       14.8      342.4       14.8       16.3        8.9     1010.9       16.9       14.8        0.0        0.0        0.0       0.00        0.0       0.26       0.00        3.6
3:29              257        0.0         68       14.8      342.4       14.8       16.3        8.9     1010.9       16.9       14.8        0.0        0.0        0.0       0.00        0.0       0.26       0.00        3.6
3:32              257        0.0         69       14.8      342.4       14.8       16.4        9.2     1010.8       16.9       14.7        0.0        0.0        0.0       0.00        0.0       0.29       0.00        3.6
3:34              257        0.0         69       14.7      342.4       14.7       16.3        9.1     1010.8       16.9       14.7        0.0        0.0        0.0       0.00        0.0       0.29       0.00        3.6
3:35              256        0.0         69       14.7      342.4       14.7       16.3        9.1     1010.9       16.9       14.7        0.0        0.0        0.0       0.00        0.0       0.29       0.00        3.6
3:38              257        0.0         69       14.7      342.4       14.7       16.3        9.1     1010.9       16.9       14.7        0.0        0.0        0.0       0.00        0.0       0.29       0.00        3.6
3:40              257        0.0         69       14.7      342.4       14.7       16.3        9.1     1010.9       16.9       14.7        0.0        0.0        0.0       0.00        0.0       0.29       0.00        3.6
3:42              257        0.0         69       14.7      342.4       14.7       16.2        9.0     1010.9       16.9       14.7        0.0        0.0        0.0       0.00        0.0       0.29       0.00        3.6
3:44              257        0.0         69       14.7      342.4       14.7       16.2        9.0     1010.9       16.9       14.7        0.0        0.0        0.0       0.00        0.0       0.29       0.00        3.6
3:46              252        0.0         69       14.7      342.4       14.7       16.2        9.0     1010.9       16.9       14.7        0.0        0.0        0.0       0.00        0.0       0.33       0.00        3.6
3:48              252        0.0         69       14.6      342.4       14.6       16.2        9.0     1010.9       16.9       14.6        0.0        0.0        0.0       0.00        0.0       0.33       0.00        3.6
3:50              254        0.0         69       14.6      342.4       14.6       16.2        9.0     1010.9       16.9       14.6        0.0        0.0        0.0       0.00        0.0       0.33       0.00        3.6
3:52              252        0.0         69       14.6      342.4       14.6       16.1        8.9     1010.9       16.9       14.6        0.0        0.0        0.0       0.00        0.0       0.33       0.00        3.6
3:53              254        0.0         70       14.6      342.4       14.6       16.2        9.2     1010.9       16.9       14.6        0.0        0.0        0.0       0.00        0.0       0.33       0.00        3.6
3:55              254        0.0         70       14.5      342.4       14.5       16.1        9.1     1010.9       16.9       14.5        0.0        0.0        0.0       0.00        0.0       0.33       0.00        3.6
3:58              253        0.0         70       14.5      342.4       14.5       16.1        9.1     1011.0       16.9       14.5        0.0        0.0        0.0       0.00        0.0       0.33       0.00        3.6
4:00              252        0.0         70       14.4      342.4       14.4       16.1        9.0     1010.9       16.9       14.4        0.0        0.0        0.0       0.00        0.0       0.33       0.00        3.6
4:01              252        0.0         70       14.4      342.4       14.4       16.1        9.0     1010.9       16.9       14.4        0.0        0.0        0.0       0.00        0.0       0.36       0.00        3.6
4:03              261        0.0         70       14.4      342.4       14.4       16.0        9.0     1011.0       16.9       14.4        0.0        0.0        0.0       0.00        0.0       0.36       0.00        3.6
4:06              257        0.0         70       14.4      342.4       14.4       16.0        9.0     1011.0       16.9       14.4        0.0        0.0        0.0       0.00        0.0       0.36       0.00        3.6
4:08              256        0.0         70       14.4      342.4       14.4       16.0        9.0     1010.9       16.9       14.4        0.0        0.0        0.0       0.00        0.0       0.36       0.00        3.6
4:10              251        0.0         70       14.4      342.4       14.4       16.0        9.0     1011.0       16.9       14.4        0.0        0.0        0.0       0.00        0.0       0.36       0.00        3.6
4:12              254        0.0         70       14.3      342.4       14.3       16.0        8.9     1011.0       16.9       14.3        0.0        0.0        0.0       0.00        0.0       0.36       0.00        3.6
4:14              263        0.0         70       14.3      342.4       14.3       16.0        8.9     1011.0       16.9       14.3        0.0        0.0        0.0       0.00        0.0       0.36       0.00        3.6
4:16              263        0.0         70       14.3      342.4       14.3       15.9        8.9     1011.0       16.9       14.3        0.0        0.0        0.0       0.00        0.0       0.40       0.00        3.6
4:18              263        0.0         70       14.3      342.4       14.3       15.9        8.9     1011.0       16.9       14.3        0.0        0.0        0.0       0.00        0.0       0.40       0.00        3.6
4:20              267        0.0         70       14.2      342.4       14.2       15.9        8.8     1011.0       16.9       14.2        0.0        0.0        0.0       0.00        0.0       0.40       0.00        3.6
4:22              263        0.0         70       14.2      342.4       14.2       15.9        8.8     1011.0       16.9       14.2        0.0        0.0        0.0       0.00        0.0       0.40       0.00        3.6
4:23              272        0.0         71       14.2      342.4       14.2       15.9        9.0     1011.0       16.9       14.2        0.0        0.0        0.0       0.00        0.0       0.40       0.00        3.6
4:26              271        0.0         71       14.2      342.4       14.2       15.9        9.0     1011.0       16.9       14.2        0.0        0.0        0.0       0.00        0.0       0.40       0.00        3.6
4:28              262        0.0         71       14.2      342.4       14.2       15.9        9.0     1011.0       16.9       14.2        0.0        0.0        0.0       0.00        0.0       0.40       0.00        3.6
4:29              262        0.0         71       14.2      342.4       14.2       15.9        9.0     1011.1       16.9       14.2        0.0        0.0        0.0       0.00        0.0       0.40       0.00        3.6
4:32              263        0.0         71       14.1      342.4       14.1       15.8        8.9     1011.1       16.9       14.1        0.0        0.0        0.0       0.00        0.0       0.44       0.00        3.6
4:34              265        0.0         71       14.1      342.4       14.1       15.8        8.9     1011.2       16.9       14.1        0.0        0.0        0.0       0.00        0.0       0.44       0.00        3.6
4:36              261        0.0         71       14.1      342.4       14.1       15.8        8.9     1011.2       16.9       14.1        0.0        0.0        0.0       0.00        0.0       0.44       0.00        3.6
4:38              261        0.0         71       14.1      342.4       14.1       15.8        8.9     1011.2       16.9       14.1        0.0        0.0        0.0       0.00        0.0       0.44       0.00        3.6
4:40              262        0.0         71       14.0      342.4       14.0       15.7        8.8     1011.2       16.9       14.0        0.0        0.0        0.0       0.00        0.0       0.44       0.00        3.6
4:42              262        0.0         71       14.0      342.4       14.0       15.7        8.8     1011.1       16.9       14.0        0.0        0.0        0.0       0.00        0.0       0.44       0.00        3.6
4:44              261        0.0         72       14.0      342.4       14.0       15.8        9.0     1011.2       16.9       14.0        0.0        0.0        0.0       0.00        0.0       0.44       0.00        3.6
4:46              263        0.0         72       13.9      342.4       13.9       15.7        9.0     1011.1       16.9       13.9        0.0        0.0        0.0       0.00        0.0       0.48       0.00        3.6
4:48              268        0.0         72       13.9      342.4       13.9       15.7        9.0     1011.0       16.9       13.9        0.0        0.0        0.0       0.00        0.0       0.48       0.00        3.6
4:50              265        0.0         72       13.9      342.4       13.9       15.7        9.0     1011.1       16.9       13.9        0.0        0.0        0.0       0.00        0.0       0.48       0.00        3.6
4:52              252        0.0         72       13.9      342.4       13.9       15.7        8.9     1011.1       16.9       13.9        0.0        0.0        0.0       0.00        0.0       0.48       0.00        3.6
4:53              272        0.0         72       13.9      342.4       13.9       15.7        8.9     1011.2       16.9       13.9        0.0        0.0        0.0       0.00        0.0       0.48       0.00        3.6
4:56              270        0.0         72       13.9      342.4       13.9       15.7        8.9     1011.1       16.9       13.9        0.0        0.0        0.0       0.00        0.0       0.48       0.00        3.6
4:57              264        0.0         72       13.9      342.4       13.9       15.7        8.9     1011.2       16.9       13.9        0.0        0.0        0.0       0.00        0.0       0.48       0.00        3.6
5:00              274        0.0         72       13.8      342.4       13.8       15.6        8.9     1011.2       16.9       13.8        0.0        0.0        0.0       0.00        0.0       0.48       0.00        3.6
5:02              254        0.0         72       13.8      342.4       13.8       15.6        8.8     1011.2       16.9       13.8        0.0        0.0        0.0       0.00        0.0       0.53       0.00        3.6
5:03              263        0.0         72       13.8      342.4       13.8       15.6        8.8     1011.3       16.9       13.8        0.0        0.0        0.0       0.00        0.0       0.53       0.00        3.6
5:06              266        0.0         72       13.7      342.4       13.7       15.5        8.8     1011.4       16.9       13.7        0.0        0.0        0.0       0.00        0.0       0.53       0.00        3.6
5:08              271        0.0         73       13.7      342.4       13.7       15.6        9.0     1011.4       16.9       13.7        0.0        0.0        0.0       0.00        0.0       0.53       0.00        3.6
5:09              275        0.0         73       13.7      342.4       13.7       15.5        8.9     1011.4       16.9       13.7        0.0        0.0        0.0       0.00        0.0       0.53       0.00        3.6
5:12              269        0.0         73       13.6      342.4       13.6       15.5        8.9     1011.4       16.9       13.6        0.0        0.0        0.0       0.00        0.0       0.53       0.00        3.6
5:13              282        0.0         73       13.6      342.4       13.6       15.5        8.9     1011.5       16.9       13.6        0.0        0.0        0.0       0.00        0.0       0.53       0.00        3.6
5:16              254        0.0         73       13.6      342.4       13.6       15.4        8.8     1011.5       16.9       13.6        0.0        0.0        0.0       0.00        0.0       0.57       0.00        3.6
5:18              282        0.0         73       13.5      342.4       13.5       15.3        8.8     1011.6       16.9       13.5        0.0        0.0        0.0       0.00        0.0       0.57       0.00        3.6
5:20              268        0.0         73       13.4      342.4       13.4       15.3        8.7     1011.6       16.9       13.4        0.0        0.0        0.0       0.00        0.0       0.57       0.00        3.6
5:22              261        0.0         73       13.4      342.4       13.4       15.3        8.7     1011.6       16.9       13.4        0.0        0.0        0.0       0.00        0.0       0.57       0.00        3.6
5:23              274        0.0         74       13.4      342.4       13.4       15.3        8.9     1011.7       16.9       13.4        0.0        0.0        0.0       0.00        0.0       0.57       0.00        3.6
5:26              281        0.0         74       13.4      342.4       13.4       15.3        8.9     1011.7       16.9       13.4        0.0        0.0        0.0       0.00        0.0       0.57       0.00        3.6
5:28              273        0.0         74       13.3      342.4       13.3       15.2        8.8     1011.6       16.9       13.3        0.0        0.0        0.0       0.00        0.0       0.57       0.00        3.6
5:30              278        0.0         74       13.3      342.4       13.3       15.2        8.7     1011.7       16.9       13.3        0.0        0.0        0.0       0.00        0.0       0.57       0.00        3.6
5:32              275        0.0         74       13.3      342.4       13.3       15.2        8.7     1011.7       16.9       13.3        0.0        0.0        0.0       0.00        0.0       0.62       0.00        3.6
5:34              286        0.0         74       13.2      342.4       13.2       15.1        8.7     1011.7       16.9       13.2        0.0        0.0        0.0       0.00        0.0       0.62       0.00        3.6
5:36              283        0.0         75       13.2      342.4       13.2       15.2        8.8     1011.6       16.9       13.2        0.0        0.0        0.0       0.00        0.0       0.62       0.00        3.6
5:38              292        0.0         75       13.1      342.4       13.1       15.1        8.8     1011.7       16.9       13.1        0.0        0.0        0.0       0.00        0.0       0.62       0.00        3.6
5:40              304        0.0         75       13.1      342.4       13.1       15.1        8.8     1011.7       16.9       13.1        0.0        0.0        0.0       0.00        0.0       0.62       0.00        3.6
5:42              314        0.0         75       13.1      342.4       13.1       15.0        8.7     1011.7       16.9       13.1        0.0        0.0        0.0       0.00        0.0       0.62       0.00        3.6
5:44              315        0.0         75       13.0      342.4       13.0       15.0        8.7     1011.7       16.9       13.0        0.0        0.0        0.0       0.00        0.0       0.62       0.00        3.6
5:46              290        0.0         75       13.0      342.4       13.0       15.0        8.7     1011.7       16.9       13.0        0.0        0.0        0.0       0.00        0.0       0.68       0.00        3.6
5:48              273        0.0         75       13.0      342.4       13.0       15.0        8.7     1011.8       16.9       13.0        0.0        0.0        0.0       0.00        0.0       0.68       0.00        3.6
5:50              320        0.0         75       12.9      342.4       12.9       14.9        8.6     1011.8       16.9       12.9        0.0        0.0        0.0       0.00        0.0       0.68       0.00        3.6
5:52              288        0.0         76       12.9      342.4       12.9       15.0        8.8     1011.8       16.9       12.9        0.0        0.0        0.0       0.00        0.0       0.68       0.00        3.6
5:53              276        0.0         76       12.9      342.4       12.9       15.0        8.8     1011.8       16.9       12.9        0.0        0.0        0.0       0.00        0.0       0.68       0.00        3.6
5:56              282        0.0         76       12.9      342.4       12.9       15.0        8.8     1011.9       16.9       12.9        0.0        0.0        0.0       0.00        0.0       0.68       0.00        3.6
5:58              279        0.0         76       12.9      342.4       12.9       15.0        8.8     1011.9       16.9       12.9        0.0        0.0        0.0       0.00        0.0       0.68       0.00        3.6
6:00              300        0.0         76       13.0      342.4       13.0       15.1        8.9     1011.9       16.9       12.9        0.0        0.0        0.0       0.00        0.0       0.68       0.00        3.6
6:01              273        0.0         76       13.0      342.4       13.0       15.1        8.9     1011.9       16.9       12.9        0.0        0.0        0.0       0.00        0.0       0.73       0.00        3.6
6:04              301        0.0         76       13.1      342.4       13.1       15.1        8.9     1011.9       16.9       12.9        0.0        0.0        0.0       0.00        0.0       0.73       0.00        3.6
6:06              278        0.0         76       13.1      342.4       13.1       15.1        8.9     1011.8       16.9       12.9        0.0        0.0        0.0       0.00        0.0       0.73       0.00        3.6
6:08              273        0.0         75       13.1      342.4       13.1       15.0        8.7     1011.9       16.9       12.9        0.0        0.0        0.0       0.00        0.0       0.73       0.00        3.6
6:10              279        0.0         75       13.1      342.4       13.1       15.0        8.7     1011.9       16.9       12.9        0.0        0.0        0.0       0.00        0.0       0.73       0.00        3.6
6:12              288        0.0         76       13.1      342.4       13.1       15.1        8.9     1011.9       16.9       12.9        0.0        0.0        0.0       0.00        0.0       0.73       0.00        3.6
6:14              279        0.0         76       13.1      342.4       13.1       15.2        9.0     1011.9       16.9       12.9        0.0        0.0        0.0       0.00        0.0       0.73       0.00        3.6
6:16              309        0.0         76       13.1      342.4       13.1       15.2        9.0     1011.9       16.9       12.9        0.0        0.0        0.0       0.00        0.0       0.78       0.00        3.6
6:18              254        0.0         75       13.1      342.4       13.1       15.1        8.8     1011.9       16.9       12.9        0.0        0.0        0.0       0.00        0.0       0.78       0.00        3.6
6:20              245        0.0         75       13.2      342.4       13.2       15.2        8.8     1011.9       16.9       12.9        0.0        0.0        0.0       0.00        0.0       0.78       0.00        3.6
6:22              291        0.0         75       13.2      342.4       13.2       15.2        8.8     1011.9       16.9       12.9        0.0        0.0        0.0       0.00        0.0       0.78       0.00        3.6
6:24              293        0.0         75       13.2      342.4       13.2       15.2        8.9     1012.0       16.9       12.9        0.0        0.0        0.0       0.00        0.0       0.78       0.00        3.6
6:26              273        0.0         75       13.3      342.4       13.3       15.3        8.9     1012.0       16.9       12.9        0.0        0.0        0.0       0.00        0.0       0.78       0.00        3.6
6:27              273        0.0         75       13.3      342.4       13.3       15.3        8.9     1011.9       16.9       12.9        0.0        0.0        0.0       0.00        0.0       0.78       0.00        3.6
6:30              273        0.0         75       13.3      342.4       13.3       15.3        8.9     1012.1       16.9       12.9        0.0        0.0        0.0       0.00        0.0       0.78       0.00        3.6
6:32              273        0.0         75       13.3      342.4       13.3       15.3        8.9     1012.0       16.9       12.9        0.0        0.0        0.0       0.00        0.0       0.83       0.00        3.6
6:34              273        0.0         75       13.3      342.4       13.3       15.3        8.9     1012.2       16.9       12.9        0.0        0.0        0.0       0.00        0.0       0.83       0.00        3.6
6:36              273        0.0         75       13.3      342.4       13.3       15.3        8.9     1012.1       16.9       12.9        0.0        0.0        0.0       0.00        0.0       0.83       0.00        3.6
6:38              273        0.0         75       13.3      342.4       13.3       15.3        8.9     1012.2       16.9       12.9        0.0        0.0        0.0       0.00        0.0       0.83       0.00        3.6
6:40              273        0.0         75       13.3      342.4       13.3       15.3        8.9     1012.1       16.9       12.9        0.0        0.0        0.0       0.00        0.0       0.83       0.00        3.6
6:42              273        0.0         75       13.3      342.4       13.3       15.3        8.9     1012.1       16.9       12.9        0.0        0.0        0.0       0.00        0.0       0.83       0.00        3.6
6:44              273        0.0         75       13.3      342.4       13.3       15.3        8.9     1012.1       16.9       12.9        0.0        0.0        0.0       0.00        0.0       0.83       0.00        3.6
6:46              273        0.0         75       13.3      342.4       13.3       15.3        8.9     1012.0       16.9       12.9        0.0        0.0        0.0       0.00        0.0       0.88       0.00        3.6
6:48              273        0.0         75       13.3      342.4       13.3       15.3        8.9     1012.0       16.9       12.9        0.0        0.0        0.0       0.00        0.0       0.88       0.00        3.6
6:50              273        0.0         75       13.3      342.4       13.3       15.3        8.9     1012.2       16.9       12.9        0.0        0.0        0.0       0.00        0.0       0.88       0.00        3.6
6:52              298        0.0         73       14.1      342.4       14.1       16.0        9.3     1012.1       16.9       12.9        0.0        0.0        0.0       0.00        0.0       0.88       0.00        3.6
6:54              298        0.0         73       14.1      342.4       14.1       16.0        9.3     1012.1       16.9       12.9        0.0        0.0        0.0       0.00        0.0       0.88       0.00        3.6
6:56              298        0.0         73       14.1      342.4       14.1       16.0        9.3     1012.1       16.9       12.9        0.0        0.0        0.0       0.00        0.0       0.88       0.00        3.6
6:57              298        0.0         73       14.1      342.4       14.1       16.0        9.3     1012.2       16.9       12.9        0.0        0.0        0.0       0.00        0.0       0.88       0.00        3.6
7:00              298        0.0         73       14.1      342.4       14.1       16.0        9.3     1012.2       16.9       12.9        0.0        0.0        0.0       0.00        0.0       0.88       0.00        3.6
7:02              298        0.0         73       14.1      342.4       14.1       16.0        9.3     1012.3       16.9       12.9        0.0        0.0        0.0       0.00        0.0       0.92       0.00        3.6
7:04              298        0.0         73       14.1      342.4       14.1       16.0        9.3     1012.3       16.9       12.9        0.0        0.0        0.0       0.00        0.0       0.92       0.00        3.6
7:06              298        0.0         73       14.1      342.4       14.1       16.0        9.3     1012.2       16.9       12.9        0.0        0.0        0.0       0.00        0.0       0.92       0.00        3.6
7:08              298        0.0         73       14.1      342.4       14.1       16.0        9.3     1012.1       16.9       12.9        0.0        0.0        0.0       0.00        0.0       0.92       0.00        3.6
7:10              298        0.0         73       14.1      342.4       14.1       16.0        9.3     1012.1       16.9       12.9        0.0        0.0        0.0       0.00        0.0       0.92       0.00        3.6
7:12              298        0.0         73       14.1      342.4       14.1       16.0        9.3     1012.2       16.9       12.9        0.0        0.0        0.0       0.00        0.0       0.92       0.00        3.6
7:14              298        0.0         73       14.1      342.4       14.1       16.0        9.3     1012.4       16.9       12.9        0.0        0.0        0.0       0.00        0.0       0.92       0.00        3.6
7:16              298        0.0         73       14.1      342.4       14.1       16.0        9.3     1012.5       16.9       12.9        0.0        0.0        0.0       0.00        0.0       0.96       0.00        3.6
7:18              298        0.0         73       14.1      342.4       14.1       16.0        9.3     1012.4       16.9       12.9        0.0        0.0        0.0       0.00        0.0       0.96       0.00        3.6
7:19              298        0.0         73       14.1      342.4       14.1       16.0        9.3     1012.4       16.9       12.9        0.0        0.0        0.0       0.00        0.0       0.96       0.00        3.6
7:22              298        0.0         73       14.1      342.4       14.1       16.0        9.3     1012.4       16.9       12.9        0.0        0.0        0.0       0.00        0.0       0.96       0.00        3.6
7:23              298        0.0         73       14.1      342.4       14.1       16.0        9.3     1012.5       16.9       12.9        0.0        0.0        0.0       0.00        0.0       0.96       0.00        3.6
7:26              298        0.0         73       14.1      342.4       14.1       16.0        9.3     1012.5       16.9       12.9        0.0        0.0        0.0       0.00        0.0       0.96       0.00        3.6
7:28              298        0.0         73       14.1      342.4       14.1       16.0        9.3     1012.6       16.9       12.9        0.0        0.0        0.0       0.00        0.0       0.96       0.00        3.6
7:30              298        0.0         73       14.1      342.4       14.1       16.0        9.3     1012.5       16.9       12.9        0.0        0.0        0.0       0.00        0.0       0.96       0.00        3.6
7:32              298        0.0         73       14.1      342.4       14.1       16.0        9.3     1012.5       16.9       12.9        0.0        0.0        0.0       0.00        0.0       1.00       0.00        3.6
7:34              298        0.0         73       14.1      342.4       14.1       16.0        9.3     1012.5       16.9       12.9        0.0        0.0        0.0       0.00        0.0       1.00       0.00        3.6
7:36              298        0.0         73       14.1      342.4       14.1       16.0        9.3     1012.5       16.9       12.9        0.0        0.0        0.0       0.00        0.0       1.00       0.00        3.6
7:38              298        0.0         73       14.1      342.4       14.1       16.0        9.3     1012.6       16.9       12.9        0.0        0.0        0.0       0.00        0.0       1.00       0.00        3.6
7:40              298        0.0         73       14.1      342.4       14.1       16.0        9.3     1012.6       16.9       12.9        0.0        0.0        0.0       0.00        0.0       1.00       0.00        3.6
7:42              298        0.0         73       14.1      342.4       14.1       16.0        9.3     1012.5       16.9       12.9        0.0        0.0        0.0       0.00        0.0       1.00       0.00        3.6
7:44              298        0.0         73       14.1      342.4       14.1       16.0        9.3     1012.5       16.9       12.9        0.0        0.0        0.0       0.00        0.0       1.00       0.00        3.6
7:46              298        0.0         73       14.1      342.4       14.1       16.0        9.3     1012.6       16.9       12.9        0.0        0.0        0.0       0.00        0.0       1.04       0.00        3.6
7:47              298        0.0         73       14.1      342.4       14.1       16.0        9.3     1012.6       16.9       12.9        0.0        0.0        0.0       0.00        0.0       1.04       0.00        3.6
7:50              298        0.0         73       14.1      342.4       14.1       16.0        9.3     1012.6       16.9       12.9        0.0        0.0        0.0       0.00        0.0       1.04       0.00        3.6
7:52              298        0.0         73       14.1      342.4       14.1       16.0        9.3     1012.6       16.9       12.9        0.0        0.0        0.0       0.00        0.0       1.04       0.00        3.6
7:54              298        0.0         73       14.1      342.4       14.1       16.0        9.3     1012.7       16.9       12.9        0.0        0.0        0.0       0.00        0.0       1.04       0.00        3.6
7:56              298        0.0         73       14.1      342.4       14.1       16.0        9.3     1012.6       16.9       12.9        0.0        0.0        0.0       0.00        0.0       1.04       0.00        3.6
7:58              298        0.0         73       14.1      342.4       14.1       16.0        9.3     1012.6       16.9       12.9        0.0        0.0        0.0       0.00        0.0       1.04       0.00        3.6
8:00              298        0.0         73       14.1      342.4       14.1       16.0        9.3     1012.6       16.9       12.9        0.0        0.0        0.0       0.00        0.0       1.04       0.00        3.6
8:02              298        0.0         73       14.1      342.4       14.1       16.0        9.3     1012.6       16.9       12.9        0.0        0.0        0.0       0.00        0.0       1.08       0.00        3.6
8:04              298        0.0         73       14.1      342.4       14.1       16.0        9.3     1012.6       16.9       12.9        0.0        0.0        0.0       0.00        0.0       1.08       0.00        3.6
8:06              298        0.0         73       14.1      342.4       14.1       16.0        9.3     1012.6       16.9       12.9        0.0        0.0        0.0       0.00        0.0       1.08       0.00        3.6
8:08              298        0.0         73       14.1      342.4       14.1       16.0        9.3     1012.6       16.9       12.9        0.0        0.0        0.0       0.00        0.0       1.08       0.00        3.6
8:10              298        0.0         73       14.1      342.4       14.1       16.0        9.3     1012.7       16.9       12.9        0.0        0.0        0.0       0.00        0.0       1.08       0.00        3.6
8:12              298        0.0         73       14.1      342.4       14.1       16.0        9.3     1012.7       16.9       12.9        0.0        0.0        0.0       0.00        0.0       1.08       0.00        3.6
8:14              298        0.0         73       14.1      342.4       14.1       16.0        9.3     1012.6       16.9       12.9        0.0        0.0        0.0       0.00        0.0       1.08       0.00        3.6
8:16              298        0.0         73       14.1      342.4       14.1       16.0        9.3     1012.6       16.9       12.9        0.0        0.0        0.0       0.00        0.0       1.12       0.00        3.6
8:18              298        0.0         73       14.1      342.4       14.1       16.0        9.3     1012.6       16.9       12.9        0.0        0.0        0.0       0.00        0.0       1.12       0.00        3.6
8:20              298        0.0         73       14.1      342.4       14.1       16.0        9.3     1012.6       16.9       12.9        0.0        0.0        0.0       0.00        0.0       1.12       0.00        3.6
8:22              298        0.0         73       14.1      342.4       14.1       16.0        9.3     1012.6       16.9       12.9        0.0        0.0        0.0       0.00        0.0       1.12       0.00        3.6
8:24              298        0.0         73       14.1      342.4       14.1       16.0        9.3     1012.6       16.9       12.9        0.0        0.0        0.0       0.00        0.0       1.12       0.00        3.6
8:25              298        0.0         73       14.1      342.4       14.1       16.0        9.3     1012.7       16.9       12.9        0.0        0.0        0.0       0.00        0.0       1.12       0.00        3.6
8:28              298        0.0         73       14.1      342.4       14.1       16.0        9.3     1012.7       16.9       12.9        0.0        0.0        0.0       0.00        0.0       1.12       0.00        3.6
8:30              298        0.0         73       14.1      342.4       14.1       16.0        9.3     1012.6       16.9       12.9        0.0        0.0        0.0       0.00        0.0       1.12       0.00        3.6
8:32              298        0.0         73       14.1      342.4       14.1       16.0        9.3     1012.7       16.9       12.9        0.0        0.0        0.0       0.00        0.0       1.16       0.00        3.6
8:34              298        0.0         73       14.1      342.4       14.1       16.0        9.3     1012.7       16.9       12.9        0.0        0.0        0.0       0.00        0.0       1.16       0.00        3.6
8:36              298        0.0         73       14.1      342.4       14.1       16.0        9.3     1012.7       16.9       12.9        0.0        0.0        0.0       0.00        0.0       1.16       0.00        3.6
8:37              298        0.0         73       14.1      342.4       14.1       16.0        9.3     1012.7       16.9       12.9        0.0        0.0        0.0       0.00        0.0       1.16       0.00        3.6
8:40              298        0.0         73       14.1      342.4       14.1       16.0        9.3     1012.8       16.9       12.9        0.0        0.0        0.0       0.00        0.0       1.16       0.00        3.6
8:42              298        0.0         73       14.1      342.4       14.1       16.0        9.3     1012.7       16.9       12.9        0.0        0.0        0.0       0.00        0.0       1.16       0.00        3.6
8:44              262        0.0         65       16.1      342.4       16.1       17.4        9.5     1012.7       16.9       12.9        0.0        0.0        0.0       0.00        0.0       1.16       0.00        3.6
8:46              265        0.0         64       16.1      342.4       16.1       17.4        9.3     1012.8       16.9       12.9        0.0        0.0        0.0       0.00        0.0       1.18       0.00        3.6
8:48              212        0.0         64       16.2      342.4       16.2       17.4        9.4     1012.7       16.9       12.9        0.0        0.0        0.0       0.00        0.0       1.18       0.00        3.6
8:50              288        0.0         65       16.3      342.4       16.3       17.6        9.7     1012.7       16.9       12.9        0.0        0.0        0.0       0.00        0.0       1.18       0.00        3.6
8:52              325        0.0         64       16.3      342.4       16.3       17.6        9.5     1012.7       16.9       12.9        0.0        0.0        0.0       0.00        0.0       1.18       0.00        3.6
8:54              319        0.0         63       16.4      342.4       16.4       17.6        9.3     1012.7       16.9       12.9        0.0        0.0        0.0       0.00        0.0       1.18       0.00        3.6
8:56              277        0.0         63       16.4      342.4       16.4       17.6        9.4     1012.7       16.9       12.9        0.0        0.0        0.0       0.00        0.0       1.18       0.00        3.6
8:58              272        0.0         62       16.5      342.4       16.5       17.6        9.2     1012.7       16.9       12.9        0.0        0.0        0.0       0.00        0.0       1.18       0.00        3.6
9:00              287        0.0         63       16.5      342.4       16.5       17.7        9.4     1012.8       16.9       12.9        0.0        0.0        0.0       0.00        0.0       1.18       0.00        3.6
9:02              221        0.0         62       16.5      342.4       16.5       17.6        9.2     1012.8       16.9       12.9        0.0        0.0        0.0       0.00        0.0       1.20       0.00        3.6
9:04              276        0.0         63       16.6      342.4       16.6       17.7        9.5     1012.8       16.9       12.9        0.0        0.0        0.0       0.00        0.0       1.20       0.00        3.6
9:06              236        0.0         62       16.6      342.4       16.6       17.7        9.3     1012.9       16.9       12.9        0.0        0.0        0.0       0.00        0.0       1.20       0.00        3.6
9:08              302        0.0         62       16.7      342.4       16.7       17.8        9.4     1012.7       16.9       12.9        0.0        0.0        0.0       0.00        0.0       1.20       0.00        3.6
9:10              284        0.0         62       16.7      342.4       16.7       17.8        9.4     1012.8       16.9       12.9        0.0        0.0        0.0       0.00        0.0       1.20       0.00        3.6
9:11              292        0.0         62       16.8      342.4       16.8       18.0        9.5     1012.8       16.9       12.9        0.0        0.0        0.0       0.00        0.0       1.20       0.00        3.6
9:14              283        0.0         61       16.9      342.4       16.9       18.0        9.3     1012.8       16.9       12.9        0.0        0.0        0.0       0.00        0.0       1.20       0.00        3.6
9:16              245        0.0         61       16.9      342.4       16.9       18.0        9.4     1013.0       16.9       12.9        0.0        0.0        0.0       0.00        0.0       1.21       0.00        3.6
9:18              259        0.0         61       16.9      342.4       16.9       18.0        9.3     1012.9       16.9       12.9        0.0        0.0        0.0       0.00        0.0       1.21       0.00        3.6
9:20              253        0.0         61       16.9      342.4       16.9       18.0        9.4     1012.9       16.9       12.9        0.0        0.0        0.0       0.00        0.0       1.21       0.00        3.6
9:22              281        0.0         61       17.0      342.4       17.0       18.1        9.4     1012.8       17.0       12.9        0.0        0.0        0.0       0.00        0.0       1.21       0.00        3.6
9:24              272        0.0         61       17.1      342.4       17.1       18.1        9.5     1012.9       17.1       12.9        0.0        0.0        0.0       0.00        0.0       1.21       0.00        3.6
9:26              250        0.0         60       17.2      342.4       17.2       18.2        9.3     1013.0       17.2       12.9        0.0        0.0        0.0       0.00        0.0       1.21       0.00        3.6
9:28              276        0.0         60       17.2      342.4       17.2       18.2        9.4     1013.0       17.2       12.9        0.0        0.0        0.0       0.00        0.0       1.21       0.00        3.6
9:30              261        0.0         59       17.3      342.4       17.3       18.2        9.2     1013.0       17.3       12.9        0.0        0.0        0.0       0.00        0.0       1.21       0.00        3.6
9:32              290        0.0         59       17.3      342.4       17.3       18.3        9.3     1012.9       17.3       12.9        0.0        0.0        0.0       0.00        0.0       1.22       0.00        3.6
9:34              280        0.0         59       17.4      342.4       17.4       18.3        9.3     1012.9       17.4       12.9        0.0        0.0        0.0       0.00        0.0       1.22       0.00        3.6
9:36              310        0.0         59       17.4      342.4       17.4       18.4        9.4     1013.0       17.4       12.9        0.0        0.0        0.0       0.00        0.0       1.22       0.00        3.6
9:38              262        0.0         59       17.6      342.4       17.6       18.5        9.5     1012.9       17.6       12.9        0.0        0.0        0.0       0.00        0.0       1.22       0.00        3.6
9:40              202        0.0         58       17.7      342.4       17.7       18.6        9.3     1013.0       17.7       12.9        0.0        0.0        0.0       0.00        0.0       1.22       0.00        3.6
9:42              261        0.0         58       17.8      342.4       17.8       18.7        9.4     1012.9       17.8       12.9        0.0        0.0        0.0       0.00        0.0       1.22       0.00        3.6
9:44              254        0.0         57       17.9      342.4       17.9       18.8        9.3     1012.9       17.9       12.9        0.0        0.0        0.0       0.00        0.0       1.22       0.00        3.6
9:46              262        0.0         57       18.1      342.4       18.1       18.9        9.4     1012.9       18.1       12.9        0.0        0.0        0.0       0.00        0.0       1.22       0.00        3.6
9:48              223        0.0         57       18.2      342.4       18.2       19.0        9.5     1012.9       18.2       12.9        0.0        0.0        0.0       0.00        0.0       1.22       0.00        3.6
9:50              213        0.0         57       18.3      342.4       18.3       19.1        9.6     1012.8       18.3       12.9        0.0        0.0        0.0       0.00        0.0       1.22       0.00        3.6
9:52              246        0.0         56       18.3      342.4       18.3       19.1        9.4     1012.8       18.3       12.9        0.0        0.0        0.0       0.00        0.0       1.22       0.00        3.6
9:54              235        0.0         55       18.4      342.4       18.4       19.1        9.2     1012.8       18.4       12.9        0.0        0.0        0.0       0.00        0.0       1.22       0.00        3.6
9:56              198        0.0         55       18.5      342.4       18.5       19.2        9.3     1012.8       18.5       12.9        0.0        0.0        0.0       0.00        0.0       1.22       0.00        3.6
9:58              236        0.0         55       18.6      342.4       18.6       19.3        9.4     1012.8       18.6       12.9        0.0        0.0        0.0       0.00        0.0       1.22       0.00        3.6
10:00             221        0.0         54       18.8      342.4       18.8       19.4        9.3     1012.8       18.8       12.9        0.0        0.0        0.0       0.00        0.0       1.22       0.00        3.6
10:02             209        0.0         55       18.8      342.4       18.8       19.5        9.6     1012.8       18.8       12.9        0.0        0.0        0.0       0.00        0.0       1.22       0.00        3.6
10:04             204        0.0         54       18.9      342.4       18.9       19.6        9.4     1012.8       18.9       12.9        0.0        0.0        0.0       0.00        0.0       1.22       0.00        3.6
10:06             242        0.0         53       19.0      342.4       19.0       19.6        9.2     1012.9       19.0       12.9        0.0        0.0        0.0       0.00        0.0       1.22       0.00        3.6
10:08             268        0.0         53       19.1      342.4       19.1       19.7        9.3     1012.9       19.1       12.9        0.0        0.0        0.0       0.00        0.0       1.22       0.00        3.6
10:10             235        0.0         52       19.1      342.4       19.1       19.7        9.0     1012.9       19.1       12.9        0.0        0.0        0.0       0.00        0.0       1.22       0.00        3.6
10:12             273        0.0         52       19.1      342.4       19.1       19.7        9.0     1012.9       19.1       12.9        0.0        0.0        0.0       0.00        0.0       1.22       0.00        3.6
10:13             261        0.0         51       19.1      342.4       19.1       19.6        8.7     1012.9       19.1       12.9        0.0        0.0        0.0       0.00        0.0       1.22       0.00        3.6
10:16             209        0.0         51       19.0      342.4       19.0       19.5        8.6     1012.9       19.1       12.9        0.0        0.0        0.0       0.00        0.0       1.22       0.00        3.6
10:18             279        0.0         52       19.1      342.4       19.1       19.6        9.0     1012.9       19.1       12.9        0.0        0.0        0.0       0.00        0.0       1.22       0.00        3.6
10:20             233        0.0         52       19.1      342.4       19.1       19.7        9.0     1012.8       19.1       12.9        0.0        0.0        0.0       0.00        0.0       1.22       0.00        3.6
10:22             252        0.0         52       19.2      342.4       19.2       19.7        9.1     1012.8       19.2       12.9        0.0        0.0        0.0       0.00        0.0       1.22       0.00        3.6
10:24             264        0.0         52       19.1      342.4       19.1       19.7        9.0     1012.9       19.2       12.9        0.0        0.0        0.0       0.00        0.0       1.22       0.00        3.6
10:25             236        0.0         52       19.2      342.4       19.2       19.8        9.1     1012.8       19.2       12.9        0.0        0.0        0.0       0.00        0.0       1.22       0.00        3.6
10:28             269        0.0         52       19.3      342.4       19.3       19.8        9.2     1012.8       19.3       12.9        0.0        0.0        0.0       0.00        0.0       1.22       0.00        3.6
10:30             260        0.0         52       19.2      342.4       19.2       19.8        9.1     1012.8       19.3       12.9        0.0        0.0        0.0       0.00        0.0       1.22       0.00        3.6
10:32             282        0.0         52       19.3      342.4       19.3       19.9        9.2     1012.8       19.3       12.9        0.0        0.0        0.0       0.00        0.0       1.22       0.00        3.6
10:33             267        0.0         52       19.4      342.4       19.4       19.9        9.3     1012.9       19.4       12.9        0.0        0.0        0.0       0.00        0.0       1.22       0.00        3.6
10:36             258        0.0         51       19.5      342.4       19.5       20.0        9.1     1012.9       19.5       12.9        0.0        0.0        0.0       0.00        0.0       1.22       0.00        3.6
10:38             206        0.0         51       19.6      342.4       19.6       20.1        9.2     1012.9       19.6       12.9        0.0        0.0        0.0       0.00        0.0       1.22       0.00        3.6
10:40             256        0.0         52       19.7      342.4       19.7       20.2        9.5     1012.9       19.7       12.9        0.0        0.0        0.0       0.00        0.0       1.22       0.00        3.6
10:42             234        0.0         51       19.7      342.4       19.7       20.2        9.3     1012.9       19.7       12.9        0.0        0.0        0.0       0.00        0.0       1.22       0.00        3.6
10:44             270        0.0         51       19.7      342.4       19.7       20.2        9.3     1012.9       19.7       12.9        0.0        0.0        0.0       0.00        0.0       1.22       0.00        3.6
10:46             227        0.0         52       19.7      342.4       19.7       20.2        9.5     1012.9       19.7       12.9        0.0        0.0        0.0       0.00        0.0       1.22       0.00        3.6
10:48             240        0.0         52       19.7      342.4       19.7       20.2        9.5     1012.8       19.7       12.9        0.0        0.0        0.0       0.00        0.0       1.22       0.00        3.6
10:50             182        0.0         51       19.7      342.4       19.7       20.2        9.3     1012.8       19.7       12.9        0.0        0.0        0.0       0.00        0.0       1.22       0.00        3.6
10:52             257        0.0         51       19.8      342.4       19.8       20.3        9.4     1012.8       19.8       12.9        0.0        0.0        0.0       0.00        0.0       1.22       0.00        3.6
10:54             288        0.0         50       19.8      342.4       19.8       20.3        9.1     1012.8       19.8       12.9        0.0        0.0        0.0       0.00        0.0       1.22       0.00        3.6
10:56             246        0.0         50       19.9      342.4       19.9       20.3        9.2     1012.8       19.9       12.9        0.0        0.0        0.0       0.00        0.0       1.22       0.00        3.6
10:58             275        0.0         50       20.0      342.4       20.0       20.4        9.3     1012.8       20.0       12.9        0.0        0.0        0.0       0.00        0.0       1.22       0.00        3.6
11:00             221        0.0         49       20.1      342.4       20.1       20.4        9.0     1012.8       20.1       12.9        0.0        0.0        0.0       0.00        0.0       1.22       0.00        3.6
11:02             252        0.0         49       20.1      342.4       20.1       20.4        9.0     1012.8       20.1       12.9        0.0        0.0        0.0       0.00        0.0       1.22       0.00        3.6
11:04             216        0.0         49       20.2      342.4       20.2       20.6        9.1     1012.8       20.2       12.9        0.0        0.0        0.0       0.00        0.0       1.22       0.00        3.6
11:06             215        0.0         49       20.2      342.4       20.2       20.6        9.2     1012.8       20.2       12.9        0.0        0.0        0.0       0.00        0.0       1.22       0.00        3.6
11:08             251        0.0         48       20.3      342.4       20.3       20.6        8.9     1012.8       20.3       12.9        0.0        0.0        0.0       0.00        0.0       1.22       0.00        3.6
11:09             227        0.0         48       20.3      342.4       20.3       20.6        8.9     1012.7       20.3       12.9        0.0        0.0        0.0       0.00        0.0       1.22       0.00        3.6
11:12             220        0.0         49       20.3      342.4       20.3       20.7        9.2     1012.8       20.3       12.9        0.0        0.0        0.0       0.00        0.0       1.22       0.00        3.6
11:14             236        0.0         49       20.3      342.4       20.3       20.7        9.2     1012.8       20.3       12.9        0.0        0.0        0.0       0.00        0.0       1.22       0.00        3.6
11:16             244        0.0         49       20.3      342.4       20.3       20.7        9.2     1012.7       20.3       12.9        0.0        0.0        0.0       0.00        0.0       1.22       0.00        3.6
11:18             236        0.0         49       20.4      342.4       20.4       20.8        9.3     1012.7       20.4       12.9        0.0        0.0        0.0       0.00        0.0       1.22       0.00        3.6
11:20             242        0.0         48       20.4      342.4       20.4       20.7        9.0     1012.7       20.4       12.9        0.0        0.0        0.0       0.00        0.0       1.22       0.00        3.6
11:21             296        0.0         48       20.4      342.4       20.4       20.7        9.0     1012.7       20.4       12.9        0.0        0.0        0.0       0.00        0.0       1.22       0.00        3.6
11:24             259        0.0         48       20.4      342.4       20.4       20.7        9.0     1012.7       20.4       12.9        0.0        0.0        0.0       0.00        0.0       1.22       0.00        3.6
11:26             259        0.0         48       20.5      342.4       20.5       20.8        9.1     1012.8       20.5       12.9        0.0        0.0        0.0       0.00        0.0       1.22       0.00        3.6
11:27             222        0.0         47       20.5      342.4       20.5       20.8        8.8     1012.8       20.5       12.9        0.0        0.0        0.0       0.00        0.0       1.22       0.00        3.6
11:30             240        0.0         47       20.6      342.4       20.6       20.8        8.9     1012.8       20.6       12.9        0.0        0.0        0.0       0.00        0.0       1.22       0.00        3.6
11:32             218        0.0         47       20.5      342.4       20.5       20.8        8.8     1012.7       20.6       12.9        0.0        0.0        0.0       0.00        0.0       1.22       0.00        3.6
11:34             221        0.0         47       20.6      342.4       20.6       20.8        8.9     1012.7       20.6       12.9        0.0        0.0        0.0       0.00        0.0       1.22       0.00        3.6
11:35             277        0.0         48       20.6      342.4       20.6       21.0        9.2     1012.8       20.6       12.9        0.0        0.0        0.0       0.00        0.0       1.22       0.00        3.6
11:38             240        0.0         48       20.7      342.4       20.7       21.0        9.3     1012.8       20.7       12.9        0.0        0.0        0.0       0.00        0.0       1.22       0.00        3.6
11:40             244        0.0         48       20.7      342.4       20.7       21.0        9.3     1012.7       20.7       12.9        0.0        0.0        0.0       0.00        0.0       1.22       0.00        3.6
11:42             217        0.0         48       20.7      342.4       20.7       21.0        9.3     1012.7       20.7       12.9        0.0        0.0        0.0       0.00        0.0       1.22       0.00        3.6
11:44             266        0.0         48       20.7      342.4       20.7       21.0        9.3     1012.7       20.7       12.9        0.0        0.0        0.0       0.00        0.0       1.22       0.00        3.6